Kezdőlap
METAR-TAF:

METAR-TAF

Repülőterek :

S.t James Municipal Airport

St. James, Minnesota, Amerikai Egyesült Államok

földrajzi szélesség: 43-59-11N, földrajzi hosszúság: 094-33-29W, magasság: 325 m

Jelenlegi meteorológiai megfigyelések

A jelentés 21 perccel ezelõtt készült, 14:35 UTC
Északnyugati szél 17 kt széllökések: 22 kt
Hőmérséklet 8°C
Páratartalom 71%
Légköri nyomás 1022 hPa
Látótávolság: 16.1 km

METAR: KJYG 011435Z AUTO 31017G22KT 10SM 08/03 A3019 RMK AO2 PWINO

Idő: 09:56 (14:56 UTC)


TAF: hiányzik

Meteorológiai megfigyelések és előrejelzések több, mint 4000 repülőtéren (METAR és TAF jelentéseket).

A térképen piros és sárga pontok jelzik az elérhető meteorológiai állomásokat.

Mozgassa az egeret a pont fölött, hogy megjelenjen az állomás neve.

Azután kattintson az időjárási megfigyelések és előrejelzések megtekintéséhez.

A térkép megváltoztatása: kattintson a fekete keresztel jelölt zöld gombra ráközelítéshez, a vonallal jelölt zöld gombra távolításhoz, vagy a zöld nyilakra a szomszédos térképek eléréséhez.


METAR-TAF: